| time (UTC) | temp F | wind direction | speed MPH | gust MPH | rain 1hr in | rain 24hr in | rain mn in | humidity % | barometer mb |
| 20260505013512 | 65 | 175 | 3.0 | 10.0 | 0.00 | 0.00 | 0.00 | 64 | 1000.9 |
| 20260505013031 | 65 | 175 | 3.0 | 11.0 | 0.00 | 0.00 | 0.00 | 63 | 1000.3 |
| 20260505012512 | 65 | 172 | 4.0 | 11.0 | 0.00 | 0.00 | 0.00 | 62 | 1000.0 |
| 20260505012011 | 65 | 171 | 3.0 | 10.0 | 0.00 | 0.00 | 0.00 | 62 | 1000.0 |
| 20260505011530 | 66 | 196 | 3.0 | 12.0 | 0.00 | 0.00 | 0.00 | 61 | 999.9 |
| 20260505011013 | 66 | 185 | 3.0 | 12.0 | 0.00 | 0.00 | 0.00 | 60 | 999.9 |
| 20260505010510 | 66 | 192 | 3.0 | 12.0 | 0.00 | 0.00 | 0.00 | 59 | 999.7 |
| 20260505010031 | 66 | 185 | 2.0 | 10.0 | 0.00 | 0.00 | 0.00 | 59 | 999.8 |
| 20260505005511 | 67 | 143 | 4.0 | 10.0 | 0.00 | 0.00 | 0.00 | 58 | 999.7 |
| 20260505005011 | 67 | 199 | 3.0 | 9.0 | 0.00 | 0.00 | 0.00 | 57 | 999.8 |
| 20260505004528 | 67 | 154 | 2.0 | 9.0 | 0.00 | 0.00 | 0.00 | 57 | 999.8 |
| 20260505004011 | 67 | 175 | 3.0 | 9.0 | 0.00 | 0.00 | 0.00 | 56 | 999.8 |
| 20260505003514 | 68 | 185 | 3.0 | 9.0 | 0.00 | 0.00 | 0.00 | 56 | 999.8 |
| 20260505003027 | 68 | 202 | 4.0 | 9.0 | 0.00 | 0.00 | 0.00 | 55 | 999.8 |
| 20260505002510 | 68 | 175 | 3.0 | 9.0 | 0.00 | 0.00 | 0.00 | 54 | 999.9 |
| 20260505002012 | 68 | 185 | 3.0 | 10.0 | 0.00 | 0.00 | 0.00 | 53 | 999.9 |
| 20260505001530 | 69 | 185 | 3.0 | 10.0 | 0.00 | 0.00 | 0.00 | 54 | 999.8 |
| 20260505001013 | 69 | 161 | 4.0 | 10.0 | 0.00 | 0.00 | 0.00 | 53 | 999.7 |
| 20260505000513 | 69 | 171 | 5.0 | 9.0 | 0.00 | 0.00 | 0.00 | 53 | 999.8 |
| 20260505000043 | 69 | 166 | 4.0 | 11.0 | 0.00 | 0.00 | 0.00 | 52 | 999.8 |
| 20260504235513 | 69 | 143 | 3.0 | 14.0 | 0.00 | 0.00 | 0.00 | 51 | 999.8 |
| 20260504235012 | 69 | 208 | 4.0 | 14.0 | 0.00 | 0.00 | 0.00 | 50 | 999.8 |
| 20260504234533 | 69 | 185 | 5.0 | 14.0 | 0.00 | 0.00 | 0.00 | 51 | 999.8 |
| 20260504234011 | 70 | 192 | 3.0 | 11.0 | 0.00 | 0.00 | 0.00 | 49 | 999.8 |
| 20260504233512 | 70 | 171 | 3.0 | 13.0 | 0.00 | 0.00 | 0.00 | 48 | 999.8 |
| 20260504233030 | 70 | 216 | 5.0 | 13.0 | 0.00 | 0.00 | 0.00 | 48 | 999.8 |
| 20260504232513 | 70 | 191 | 5.0 | 13.0 | 0.00 | 0.00 | 0.00 | 47 | 1000.0 |
| 20260504232010 | 70 | 259 | 7.0 | 13.0 | 0.00 | 0.00 | 0.00 | 47 | 1000.1 |
| 20260504231528 | 70 | 168 | 3.0 | 22.0 | 0.00 | 0.00 | 0.00 | 47 | 1000.2 |
| 20260504231017 | 71 | 172 | 4.0 | 22.0 | 0.00 | 0.00 | 0.00 | 47 | 1000.3 |
| 20260504230512 | 71 | 191 | 7.0 | 16.0 | 0.00 | 0.00 | 0.00 | 46 | 1000.3 |
| 20260504230028 | 71 | 185 | 5.0 | 19.0 | 0.00 | 0.00 | 0.00 | 46 | 1000.5 |
| 20260504225514 | 71 | 204 | 6.0 | 19.0 | 0.00 | 0.00 | 0.00 | 46 | 1000.5 |
| 20260504225010 | 71 | 168 | 6.0 | 19.0 | 0.00 | 0.00 | 0.00 | 46 | 1000.7 |
| 20260504224531 | 71 | 206 | 7.0 | 17.0 | 0.00 | 0.00 | 0.00 | 46 | 1000.7 |
| 20260504224013 | 71 | 165 | 8.0 | 16.0 | 0.00 | 0.00 | 0.00 | 45 | 1000.8 |
| 20260504223512 | 71 | 122 | 6.0 | 18.0 | 0.00 | 0.00 | 0.00 | 45 | 1000.8 |
| 20260504223031 | 71 | 168 | 6.0 | 18.0 | 0.00 | 0.00 | 0.00 | 45 | 1001.1 |
| 20260504222513 | 71 | 149 | 6.0 | 18.0 | 0.00 | 0.00 | 0.00 | 44 | 1001.0 |
| 20260504222011 | 71 | 225 | 3.0 | 13.0 | 0.00 | 0.00 | 0.00 | 45 | 1001.0 |
| 20260504221530 | 71 | 185 | 4.0 | 14.0 | 0.00 | 0.00 | 0.00 | 45 | 1000.9 |
| 20260504221013 | 71 | 154 | 5.0 | 14.0 | 0.00 | 0.00 | 0.00 | 45 | 1001.0 |
| 20260504220510 | 71 | 252 | 6.0 | 15.0 | 0.00 | 0.00 | 0.00 | 45 | 1001.0 |
| 20260504220043 | 71 | 233 | 7.0 | 15.0 | 0.00 | 0.00 | 0.00 | 45 | 1001.1 |
| 20260504215511 | 71 | 289 | 3.0 | 10.0 | 0.00 | 0.00 | 0.00 | 46 | 1001.1 |
| 20260504215013 | 71 | 160 | 3.0 | 16.0 | 0.00 | 0.00 | 0.00 | 45 | 1001.1 |
| 20260504214535 | 71 | 185 | 6.0 | 16.0 | 0.00 | 0.00 | 0.00 | 45 | 1001.1 |
| 20260504214012 | 70 | 159 | 5.0 | 13.0 | 0.00 | 0.00 | 0.00 | 45 | 1001.1 |
| 20260504213512 | 70 | 206 | 5.0 | 16.0 | 0.00 | 0.00 | 0.00 | 45 | 1001.1 |
| 20260504213045 | 70 | 198 | 8.0 | 18.0 | 0.00 | 0.00 | 0.00 | 45 | 1001.1 |
| 20260504212511 | 71 | 235 | 6.0 | 18.0 | 0.00 | 0.00 | 0.00 | 44 | 1001.1 |
| 20260504212017 | 71 | 166 | 5.0 | 18.0 | 0.00 | 0.00 | 0.00 | 45 | 1001.1 |
| 20260504211537 | 71 | 167 | 4.0 | 12.0 | 0.00 | 0.00 | 0.00 | 46 | 1001.1 |
| 20260504211013 | 71 | 289 | 4.0 | 16.0 | 0.00 | 0.00 | 0.00 | 45 | 1001.2 |
| 20260504210512 | 71 | 235 | 5.0 | 18.0 | 0.00 | 0.00 | 0.00 | 44 | 1001.2 |
| 20260504210029 | 72 | 281 | 7.0 | 18.0 | 0.00 | 0.00 | 0.00 | 43 | 1001.0 |
| 20260504205511 | 72 | 220 | 4.0 | 15.0 | 0.00 | 0.00 | 0.00 | 43 | 1000.9 |
| 20260504205010 | 72 | 191 | 4.0 | 15.0 | 0.00 | 0.00 | 0.00 | 44 | 1000.9 |
| 20260504204537 | 72 | 232 | 6.0 | 17.0 | 0.00 | 0.00 | 0.00 | 43 | 1001.1 |
| 20260504204012 | 73 | 202 | 8.0 | 17.0 | 0.00 | 0.00 | 0.00 | 42 | 1001.1 |
| 20260504203512 | 73 | 233 | 5.0 | 17.0 | 0.00 | 0.00 | 0.00 | 42 | 1001.1 |
| 20260504203029 | 72 | 0 | 3.0 | 21.0 | 0.00 | 0.00 | 0.00 | 44 | 1001.2 |
| 20260504202513 | 72 | 308 | 7.0 | 21.0 | 0.00 | 0.00 | 0.00 | 43 | 1001.1 |
| 20260504202010 | 72 | 197 | 7.0 | 13.0 | 0.00 | 0.00 | 0.00 | 43 | 1001.3 |
| 20260504201529 | 72 | 195 | 4.0 | 17.0 | 0.00 | 0.00 | 0.00 | 44 | 1001.2 |
| 20260504201012 | 73 | 228 | 7.0 | 17.0 | 0.00 | 0.00 | 0.00 | 42 | 1001.4 |
| 20260504200512 | 72 | 218 | 6.0 | 14.0 | 0.00 | 0.00 | 0.00 | 42 | 1001.3 |
| 20260504200033 | 72 | 200 | 4.0 | 13.0 | 0.00 | 0.00 | 0.00 | 42 | 1001.4 |
| 20260504195511 | 73 | 158 | 7.0 | 19.0 | 0.00 | 0.00 | 0.00 | 41 | 1001.3 |
| 20260504195011 | 73 | 241 | 2.0 | 19.0 | 0.00 | 0.00 | 0.00 | 42 | 1001.3 |
| 20260504194532 | 73 | 198 | 4.0 | 19.0 | 0.00 | 0.00 | 0.00 | 44 | 1001.4 |
| 20260504194014 | 73 | 180 | 3.0 | 11.0 | 0.00 | 0.00 | 0.00 | 45 | 1001.3 |
| 20260504193512 | 73 | 193 | 3.0 | 12.0 | 0.00 | 0.00 | 0.00 | 41 | 1001.5 |
| 20260504193031 | 73 | 180 | 4.0 | 14.0 | 0.00 | 0.00 | 0.00 | 42 | 1001.4 |
| 20260504192510 | 73 | 229 | 5.0 | 14.0 | 0.00 | 0.00 | 0.00 | 38 | 1001.5 |
| 20260504192013 | 73 | 238 | 4.0 | 13.0 | 0.00 | 0.00 | 0.00 | 39 | 1001.7 |
| 20260504191529 | 73 | 204 | 4.0 | 13.0 | 0.00 | 0.00 | 0.00 | 36 | 1001.4 |
| 20260504191014 | 73 | 175 | 5.0 | 15.0 | 0.00 | 0.00 | 0.00 | 39 | 1001.6 |
| 20260504190516 | 73 | 222 | 4.0 | 15.0 | 0.00 | 0.00 | 0.00 | 36 | 1001.6 |
| 20260504190033 | 73 | 175 | 5.0 | 17.0 | 0.00 | 0.00 | 0.00 | 35 | 1001.6 |
| 20260504185510 | 73 | 242 | 7.0 | 17.0 | 0.00 | 0.00 | 0.00 | 35 | 1001.7 |
| 20260504185016 | 73 | 231 | 5.0 | 17.0 | 0.00 | 0.00 | 0.00 | 38 | 1001.8 |
| 20260504184529 | 73 | 185 | 4.0 | 12.0 | 0.00 | 0.00 | 0.00 | 37 | 1001.7 |
| 20260504184017 | 74 | 264 | 5.0 | 11.0 | 0.00 | 0.00 | 0.00 | 39 | 1001.8 |
| 20260504183513 | 74 | 245 | 3.0 | 13.0 | 0.00 | 0.00 | 0.00 | 37 | 1001.8 |
| 20260504183030 | 73 | 262 | 4.0 | 14.0 | 0.00 | 0.00 | 0.00 | 40 | 1001.9 |
| 20260504182513 | 73 | 261 | 4.0 | 14.0 | 0.00 | 0.00 | 0.00 | 40 | 1001.9 |
| 20260504182011 | 73 | 196 | 7.0 | 14.0 | 0.00 | 0.00 | 0.00 | 36 | 1002.1 |
| 20260504181534 | 73 | 233 | 4.0 | 14.0 | 0.00 | 0.00 | 0.00 | 36 | 1002.0 |
| 20260504181011 | 73 | 238 | 4.0 | 14.0 | 0.00 | 0.00 | 0.00 | 34 | 1002.0 |
| 20260504180555 | 72 | 219 | 5.0 | 16.0 | 0.00 | 0.00 | 0.00 | 36 | 1002.0 |
| 20260504180028 | 72 | 212 | 5.0 | 16.0 | 0.00 | 0.00 | 0.00 | 37 | 1002.2 |
| 20260504175511 | 72 | 232 | 5.0 | 16.0 | 0.00 | 0.00 | 0.00 | 36 | 1002.3 |
| 20260504175015 | 72 | 286 | 4.0 | 16.0 | 0.00 | 0.00 | 0.00 | 37 | 1002.3 |
| 20260504174528 | 72 | 273 | 4.0 | 16.0 | 0.00 | 0.00 | 0.00 | 37 | 1002.4 |
| 20260504174014 | 72 | 210 | 6.0 | 15.0 | 0.00 | 0.00 | 0.00 | 37 | 1002.5 |
| 20260504173513 | 72 | 196 | 5.0 | 13.0 | 0.00 | 0.00 | 0.00 | 39 | 1002.6 |
| 20260504173032 | 72 | 163 | 3.0 | 13.0 | 0.00 | 0.00 | 0.00 | 41 | 1002.6 |
| 20260504172512 | 72 | 160 | 3.0 | 13.0 | 0.00 | 0.00 | 0.00 | 41 | 1002.6 |
| 20260504172016 | 72 | 239 | 3.0 | 10.0 | 0.00 | 0.00 | 0.00 | 41 | 1002.7 |
| 20260504171529 | 72 | 158 | 4.0 | 16.0 | 0.00 | 0.00 | 0.00 | 43 | 1002.7 |
| 20260504171013 | 72 | 135 | 5.0 | 16.0 | 0.00 | 0.00 | 0.00 | 43 | 1002.8 |
| 20260504170510 | 71 | 283 | 6.0 | 13.0 | 0.00 | 0.00 | 0.00 | 41 | 1002.7 |
| 20260504151013 | 64 | 180 | 5.0 | 15.0 | 0.00 | 0.00 | 0.00 | 56 | 1004.3 |
| 20260504150510 | 63 | 199 | 3.0 | 11.0 | 0.00 | 0.00 | 0.00 | 58 | 1004.3 |
| 20260504141013 | 59 | 238 | 4.0 | 11.0 | 0.00 | 0.00 | 0.00 | 63 | 1004.7 |
| 20260504140512 | 59 | 206 | 3.0 | 11.0 | 0.00 | 0.00 | 0.00 | 64 | 1004.7 |
| 20260504130513 | 54 | 237 | 2.0 | 9.0 | 0.00 | 0.00 | 0.00 | 69 | 1005.2 |
| 20260504110512 | 48 | 175 | 1.0 | 6.0 | 0.00 | 0.00 | 0.00 | 76 | 1005.3 |
| 20260504100513 | 48 | 163 | 1.0 | 4.0 | 0.00 | 0.00 | 0.00 | 75 | 1005.4 |
| 20260504081529 | 49 | 190 | 1.0 | 11.0 | 0.00 | 0.00 | 0.00 | 72 | 1005.8 |
| 20260504081013 | 49 | 214 | 2.0 | 9.0 | 0.00 | 0.00 | 0.00 | 71 | 1005.8 |
| 20260504080513 | 49 | 168 | 2.0 | 9.0 | 0.00 | 0.00 | 0.00 | 71 | 1005.9 |
| 20260504050512 | 52 | 193 | 2.0 | 13.0 | 0.00 | 0.00 | 0.00 | 63 | 1008.0 |
| 20260504045512 | 52 | 204 | 2.0 | 10.0 | 0.00 | 0.00 | 0.00 | 64 | 1008.0 |
| 20260504045010 | 52 | 124 | 3.0 | 13.0 | 0.00 | 0.00 | 0.00 | 64 | 1008.1 |
| 20260504044536 | 52 | 210 | 3.0 | 13.0 | 0.00 | 0.00 | 0.00 | 63 | 1008.1 |
| 20260504044012 | 52 | 249 | 3.0 | 11.0 | 0.00 | 0.00 | 0.00 | 64 | 1008.2 |
| 20260504043512 | 52 | 195 | 3.0 | 10.0 | 0.00 | 0.00 | 0.00 | 64 | 1008.1 |
| 20260504043041 | 52 | 185 | 3.0 | 13.0 | 0.00 | 0.00 | 0.00 | 63 | 1008.1 |
| 20260504042514 | 52 | 258 | 4.0 | 13.0 | 0.00 | 0.00 | 0.00 | 63 | 1008.1 |
| 20260504042017 | 52 | 224 | 3.0 | 12.0 | 0.00 | 0.00 | 0.00 | 63 | 1008.3 |
| 20260504041530 | 52 | 160 | 2.0 | 13.0 | 0.00 | 0.00 | 0.00 | 63 | 1008.3 |
| 20260504041013 | 52 | 185 | 2.0 | 13.0 | 0.00 | 0.00 | 0.00 | 63 | 1008.1 |
| 20260504040513 | 52 | 195 | 3.0 | 12.0 | 0.00 | 0.00 | 0.00 | 63 | 1008.2 |
| 20260504040033 | 52 | 0 | 4.0 | 13.0 | 0.00 | 0.00 | 0.00 | 63 | 1008.3 |
| 20260504035511 | 52 | 175 | 4.0 | 13.0 | 0.00 | 0.00 | 0.00 | 62 | 1008.3 |
| 20260504035012 | 53 | 175 | 2.0 | 9.0 | 0.00 | 0.00 | 0.00 | 63 | 1008.3 |
| 20260504034528 | 53 | 201 | 3.0 | 9.0 | 0.00 | 0.00 | 0.00 | 62 | 1008.3 |
| 20260504034011 | 53 | 224 | 2.0 | 10.0 | 0.00 | 0.00 | 0.00 | 61 | 1008.5 |
| 20260504033511 | 53 | 185 | 2.0 | 16.0 | 0.00 | 0.00 | 0.00 | 60 | 1008.5 |
| 20260504033028 | 53 | 240 | 2.0 | 16.0 | 0.00 | 0.00 | 0.00 | 60 | 1008.5 |
| 20260504032512 | 54 | 320 | 3.0 | 16.0 | 0.00 | 0.00 | 0.00 | 61 | 1008.6 |
| 20260504032012 | 54 | 246 | 2.0 | 13.0 | 0.00 | 0.00 | 0.00 | 61 | 1008.7 |
| 20260504031530 | 54 | 254 | 4.0 | 13.0 | 0.00 | 0.00 | 0.00 | 60 | 1008.6 |
| 20260504031013 | 54 | 229 | 2.0 | 11.0 | 0.00 | 0.00 | 0.00 | 60 | 1008.7 |
| 20260504030511 | 54 | 235 | 2.0 | 11.0 | 0.00 | 0.00 | 0.00 | 60 | 1008.7 |
| 20260504030029 | 54 | 245 | 2.0 | 10.0 | 0.00 | 0.00 | 0.00 | 60 | 1008.7 |
| 20260504025515 | 55 | 268 | 2.0 | 12.0 | 0.00 | 0.00 | 0.00 | 60 | 1008.7 |
| 20260504025014 | 55 | 299 | 3.0 | 12.0 | 0.00 | 0.00 | 0.00 | 59 | 1008.7 |
| 20260504024528 | 55 | 185 | 3.0 | 15.0 | 0.00 | 0.00 | 0.00 | 58 | 1008.7 |
| 20260504024013 | 55 | 223 | 2.0 | 15.0 | 0.00 | 0.00 | 0.00 | 57 | 1008.8 |
| 20260504023513 | 55 | 185 | 4.0 | 15.0 | 0.00 | 0.00 | 0.00 | 57 | 1008.8 |
| 20260504023030 | 55 | 268 | 3.0 | 14.0 | 0.00 | 0.00 | 0.00 | 57 | 1008.7 |
| 20260504022514 | 55 | 245 | 4.0 | 10.0 | 0.00 | 0.00 | 0.00 | 56 | 1008.8 |
| 20260504022013 | 55 | 277 | 2.0 | 13.0 | 0.00 | 0.00 | 0.00 | 56 | 1008.7 |
| 20260504021533 | 56 | 219 | 2.0 | 13.0 | 0.00 | 0.00 | 0.00 | 55 | 1008.6 |
| 20260504021012 | 56 | 198 | 3.0 | 13.0 | 0.00 | 0.00 | 0.00 | 55 | 1008.6 |
| 20260504020510 | 56 | 216 | 2.0 | 10.0 | 0.00 | 0.00 | 0.00 | 54 | 1008.7 |
| 20260504020034 | 56 | 170 | 4.0 | 10.0 | 0.00 | 0.00 | 0.00 | 55 | 1008.6 |
| 20260504015512 | 56 | 239 | 2.0 | 9.0 | 0.00 | 0.00 | 0.00 | 54 | 1008.6 |
| 20260504015011 | 56 | 243 | 2.0 | 12.0 | 0.00 | 0.00 | 0.00 | 53 | 1008.6 |
| 20260504014537 | 56 | 208 | 3.0 | 12.0 | 0.00 | 0.00 | 0.00 | 53 | 1008.4 |
| 20260504014013 | 56 | 139 | 2.0 | 9.0 | 0.00 | 0.00 | 0.00 | 53 | 1008.4 |